weather.gov     
National Weather Service

Regional Weather Roundup
NWS Homepage
This page is being discontinued on March 12, 2014.
The same data is available at this site. Please update your bookmarks.
Thank you, and we apologize for the inconvenience.
Please send an email to SR-SRH.Webmaster@noaa.gov with any concerns.


Current Version
Previous Version:    01  02  03  04  05  06  07  08  09  10  11  12  13  14  15  16  17  18  19  20  21  22  23  24  25  26  27  28  29  30  
   31  32  33  34  35  36  37  38  39  40  41  42  43  44  45  46  47  48  49  50  51  52  53  
[Printable]
761
ASUS43 KLMK 222310
RWRKY
KENTUCKY REGIONAL WEATHER ROUNDUP
NATIONAL WEATHER SERVICE LOUISVILLE KY
700 PM EDT WED OCT 22 2014

NOTE "FAIR" INDICATES FEW OR NO CLOUDS BELOW 12,000 FEET
WITH NO SIGNIFICANT WEATHER AND/OR OBSTRUCTIONS TO VISIBILITY.

KYZ001>023-026-027-061>063-070>075-230000-
WESTERN AND SOUTH CENTRAL KENTUCKY

CITY           SKY/WX    TMP DP  RH WIND       PRES   REMARKS
PADUCAH        CLEAR     59  42  53 NE8       30.21S
HENDERSON      CLEAR    N/A N/A N/A NE5       30.23R
OWENSBORO      CLEAR     60  41  49 NE3       30.23S
HOPKINSVILLE   CLEAR     55  42  60 NE7       30.21S
BOWLING GREEN  CLEAR     58  41  53 N5        30.22R
GLASGOW        CLEAR     55  41  59 CALM      30.22R
$$

KYZ024-025-028>034-038-045-046-053-230000-
NORTH CENTRAL KENTUCKY

CITY           SKY/WX    TMP DP  RH WIND       PRES   REMARKS
LOUISVILLE/SDF PTCLDY    58  40  51 VRB6      30.23S
LOUISVILLE/LOU PTCLDY    58  40  51 NE3       30.24S
FORT KNOX      CLEAR     55  42  61 NE5       30.22S
$$

KYZ035>037-039>044-047>052-055>060-089>105-230000-
NORTHEAST KENTUCKY

CITY           SKY/WX    TMP DP  RH WIND       PRES   REMARKS
LEXINGTON      CLOUDY    54  42  64 NE5       30.24F
COVINGTON      MOCLDY    52  38  58 E9        30.25F
FRANKFORT      CLEAR     53  39  59 N3        30.24S
$$

KYZ054-064>069-076>088-106>120-230000-
SOUTHEAST KENTUCKY

CITY           SKY/WX    TMP DP  RH WIND       PRES   REMARKS
JACKSON        CLOUDY    49  41  74 CALM      30.23S
LONDON         CLOUDY    50  40  68 N3        30.25R
SOMERSET       CLOUDY    46  37  71 CALM      30.27S
MIDDLESBORO    CLOUDY    49  41  73 NW6       30.24S
MONTICELLO     MOCLDY    50  41  71 NE7       30.27R
$$





U.S. Dept. of Commerce
NOAA National Weather Service
1325 East West Highway
Silver Spring, MD 20910
E-mail: w-nws.webmaster@noaa.gov
Page last modified: May 16, 2007
NATIONAL WEATHER SERVICE: for Safety, for Work, for Fun - FOR LIFE